Theta_e
338 338 337 336 335 334 333 333 332 333 334 334 335 333 334 337 338 342 344 343 344 343 341 341 345 350 351 350 350 348 343 340 341 342 343 342 342 342 340 338 337 338 340 341 340 339 340 338 332 325 323 325 326 326 332 336 334 330 329 327 325 324 326 328 330 334 338 338 338 340 340 339 338 338 337 335 332 329 328 327 325 324 325 325 324
341 338 337 336 336 335 334 334 334 334 334 335 335 335 336 337 338 342 346 345 345 344 342 341 342 348 352 351 350 349 346 344 343 342 342 342 341 340 341 339 337 336 338 340 340 339 339 339 336 331 325 323 324 322 326 332 333 330 327 326 324 323 323 325 324 324 329 333 336 338 340 340 340 339 338 338 336 332 329 328 327 326 324 324 325
344 340 339 336 336 336 335 334 335 335 335 335 335 335 336 337 338 342 344 346 348 346 343 343 342 343 347 351 351 349 348 347 345 344 342 342 341 340 339 340 339 337 337 338 339 339 339 338 337 334 330 325 324 322 322 327 332 333 329 327 326 325 323 324 324 323 323 326 331 334 335 337 339 339 339 339 338 336 333 330 328 327 325 324 324
348 343 341 339 337 336 336 336 335 335 335 335 335 335 335 336 338 340 342 346 350 349 345 345 345 344 343 348 352 350 348 348 347 346 345 343 342 340 339 339 339 338 336 336 337 337 338 338 336 335 334 331 327 325 322 322 327 332 333 330 328 327 326 326 325 324 325 324 327 329 332 334 337 338 338 338 336 335 334 332 329 326 325 325 325
353 346 343 342 340 338 338 337 336 336 335 335 335 335 336 336 338 340 341 344 348 349 348 346 346 346 344 344 348 349 349 349 348 347 347 345 345 344 341 338 339 340 338 336 336 337 337 338 337 335 335 335 332 329 326 323 323 326 330 330 329 329 330 330 330 329 328 326 326 329 332 337 339 339 338 338 336 335 334 333 331 328 327 328 328
359 354 346 343 340 339 340 339 338 336 336 336 336 335 336 339 341 341 341 343 346 348 348 347 345 346 346 344 345 347 348 349 349 348 347 347 349 348 345 341 339 340 341 339 338 338 338 338 338 338 337 336 335 333 331 328 325 324 325 326 327 328 330 331 333 335 334 331 328 328 332 336 340 341 340 338 337 336 334 333 332 330 330 330 330
364 361 356 349 343 340 339 338 338 337 335 337 337 338 339 341 343 345 345 344 346 349 349 348 345 345 346 346 345 347 348 348 348 348 347 348 352 351 348 344 341 341 342 341 340 339 338 339 339 339 338 337 336 335 333 332 331 328 326 324 325 327 329 329 331 335 336 336 333 330 329 332 336 339 340 339 338 337 336 336 335 332 329 330 330
365 364 362 357 350 343 339 338 336 335 335 336 339 342 344 345 346 350 351 350 350 351 352 351 349 348 348 347 346 347 348 346 346 348 348 349 351 353 351 347 344 342 340 340 342 340 338 339 339 339 339 338 337 337 335 334 334 333 331 328 325 325 326 328 329 331 334 336 335 332 329 329 332 335 339 340 339 336 335 336 338 336 333 332 332
365 364 363 360 355 348 341 338 336 334 335 336 337 341 344 347 349 350 352 354 354 355 355 354 354 354 353 350 349 348 346 344 343 345 347 347 349 351 351 348 346 344 341 340 341 340 339 340 341 338 338 339 338 338 338 336 335 334 333 332 330 328 326 328 329 330 331 333 335 335 334 332 331 333 337 339 337 334 333 335 337 337 337 336 334
365 364 362 361 359 354 347 341 338 338 337 336 336 338 340 345 348 350 352 353 355 356 357 357 356 357 357 355 353 350 346 341 340 341 343 344 345 347 349 348 347 345 344 342 342 342 341 342 344 343 341 340 339 339 340 339 337 336 335 334 333 332 331 330 331 331 332 333 333 335 337 335 332 332 334 336 336 335 335 337 337 336 337 338 337
364 363 363 363 361 359 354 347 343 341 339 337 337 336 337 340 343 347 350 351 353 355 357 358 358 357 359 359 357 354 348 342 338 338 339 340 343 344 346 347 346 345 344 343 342 342 341 342 344 346 347 346 344 342 341 341 340 339 338 337 335 335 334 334 334 334 334 335 336 336 338 337 336 334 334 335 336 337 337 337 338 338 339 339 338
365 363 364 364 363 361 358 352 347 344 341 338 337 336 336 338 340 344 348 351 352 352 355 356 357 357 358 361 361 358 354 348 344 340 338 339 341 343 344 345 345 344 343 342 342 342 341 341 343 346 348 349 348 347 345 343 342 342 341 340 338 337 336 336 336 336 336 337 338 338 339 339 339 338 337 337 338 339 339 339 339 339 339 339 338
364 364 363 363 364 364 361 357 352 347 344 342 340 338 337 337 339 341 345 348 350 350 352 353 355 355 356 360 363 362 359 355 352 348 344 342 342 342 344 345 345 344 343 342 342 341 341 342 343 345 347 348 349 349 349 347 345 343 343 343 341 339 339 338 337 337 338 338 339 340 340 340 341 340 339 338 339 340 340 340 340 339 339 339 338
361 363 363 363 364 365 363 361 357 353 350 347 346 344 341 339 339 341 345 347 348 348 350 352 354 355 355 356 359 362 363 361 359 356 353 350 347 345 344 345 345 346 345 344 343 343 342 342 342 343 346 348 348 349 350 349 348 346 345 345 343 342 340 340 339 338 338 339 341 341 341 341 341 342 341 340 340 341 340 340 340 339 338 338 338
361 362 363 363 363 364 364 363 361 359 357 354 352 350 347 345 344 345 348 349 349 349 350 352 354 355 356 356 357 359 362 363 362 361 359 357 354 351 348 348 348 347 347 347 347 346 345 345 344 344 346 348 348 348 349 349 349 348 347 345 343 343 341 340 340 339 338 338 339 341 342 343 343 342 342 342 341 340 340 340 339 339 338 339 339
360 361 362 363 363 363 364 363 363 363 361 359 357 354 352 351 350 350 351 352 352 352 353 354 355 357 358 358 357 356 358 361 362 361 361 362 361 358 355 352 352 350 350 350 350 350 349 349 349 348 347 347 347 347 348 349 350 350 348 346 343 343 343 341 340 340 339 337 337 340 342 343 344 343 343 343 342 340 340 339 339 339 338 339 340
359 359 361 362 363 363 363 364 365 364 363 361 358 356 355 355 355 355 355 355 355 355 355 355 355 356 357 358 357 355 355 358 361 361 362 363 363 362 360 357 355 353 352 353 353 353 353 352 351 351 350 349 349 348 348 350 350 350 350 347 344 343 342 342 343 343 342 339 338 340 342 343 344 344 344 343 342 341 340 339 339 339 339 339 340
357 358 360 361 363 363 363 365 366 365 362 362 359 357 358 358 358 358 358 357 356 357 358 358 357 357 357 357 358 357 356 357 358 360 362 362 363 363 361 360 358 355 354 354 355 355 355 355 354 354 353 352 351 350 350 351 350 349 350 349 347 344 341 341 344 345 343 342 341 341 342 343 343 344 345 344 343 342 340 339 339 339 339 338 338
356 357 358 360 363 363 363 365 367 365 362 361 359 358 358 359 360 360 359 359 359 359 361 362 362 361 361 360 361 361 361 360 359 359 360 361 362 363 363 362 361 358 357 356 354 354 355 356 357 356 355 355 354 352 352 353 352 350 349 350 349 345 340 338 341 343 343 342 342 343 343 344 343 344 344 344 344 343 341 340 340 339 338 338 337
356 357 358 360 362 363 363 365 368 367 364 362 360 359 360 360 361 362 362 361 360 360 361 362 363 365 366 365 364 364 364 364 363 362 362 361 362 363 363 363 362 360 360 359 357 355 355 355 357 358 358 358 357 354 353 352 353 352 350 349 349 346 343 340 338 340 342 342 341 341 342 344 344 344 345 344 344 343 341 340 340 338 337 337 337
358 358 359 360 362 363 364 365 367 367 366 364 362 360 361 362 362 363 363 363 362 361 362 362 363 365 366 366 366 366 366 366 365 365 364 363 364 364 363 363 362 361 361 360 359 358 356 356 358 357 358 359 359 357 355 354 353 353 352 351 349 347 346 343 340 340 342 343 343 342 343 344 345 345 345 344 344 343 341 340 340 338 336 336 336
361 361 360 360 362 365 366 366 366 366 366 366 365 363 362 363 364 364 363 365 365 363 363 364 363 365 366 365 366 366 366 367 366 365 365 364 365 365 364 364 363 363 362 361 360 359 358 358 358 358 358 359 359 358 358 356 356 355 354 352 351 349 348 346 344 344 344 344 344 344 344 344 345 345 345 345 345 343 342 341 340 339 336 335 335
363 363 362 362 363 366 368 368 366 365 365 366 366 365 364 365 366 365 364 366 367 366 365 366 365 365 366 366 365 365 365 366 366 365 365 365 364 364 364 364 363 363 363 362 361 360 359 359 359 359 359 360 359 360 360 358 358 357 355 354 353 352 350 348 346 347 346 346 346 345 344 344 344 345 346 346 346 344 343 342 340 339 336 334 334
365 364 363 363 363 366 368 368 367 366 367 367 367 367 366 365 365 366 365 366 368 367 366 366 365 365 365 365 365 365 365 365 364 364 365 364 363 364 363 363 363 363 363 363 362 361 361 360 360 360 360 359 359 360 360 360 359 358 357 355 355 355 352 351 349 349 348 347 347 346 345 344 343 344 345 346 345 344 343 341 340 338 336 334 333
366 365 365 365 364 366 368 367 368 368 368 368 367 367 367 366 366 366 367 367 366 367 366 367 366 366 365 364 364 364 363 363 363 363 363 362 362 363 362 362 362 362 362 362 362 361 361 361 360 360 359 359 358 359 360 360 359 359 357 356 356 356 354 352 351 350 349 348 347 347 345 344 343 344 345 345 344 342 341 339 337 336 334 332 332
366 365 365 366 366 366 366 367 368 368 368 368 367 367 367 368 367 367 367 366 365 365 366 366 365 365 364 364 364 363 363 362 363 363 363 364 363 363 363 363 362 362 362 362 362 362 361 361 361 360 359 358 358 358 358 359 359 360 359 357 357 357 355 353 352 351 350 349 347 347 346 345 344 345 345 345 343 341 339 337 335 333 332 331 331
366 367 368 367 366 366 366 366 367 368 367 367 367 366 366 367 366 366 365 364 364 364 364 364 363 363 363 364 363 363 363 363 363 364 364 363 363 363 362 362 362 361 361 361 361 361 361 361 361 360 360 358 358 358 358 358 358 359 360 359 358 357 355 354 352 351 350 349 348 347 346 346 345 345 345 344 341 339 337 337 335 333 332 331 331
366 367 367 367 367 367 366 365 366 366 366 365 365 365 365 364 364 365 365 363 364 364 363 363 363 363 364 364 363 364 364 364 364 364 363 362 362 362 362 361 361 361 360 360 360 360 360 360 361 361 360 359 359 358 358 359 359 358 358 359 358 357 355 354 353 352 351 350 349 348 347 347 346 346 345 343 339 337 336 335 334 334 333 332 332
367 367 367 367 366 366 366 365 364 365 364 364 363 363 364 363 363 364 364 364 365 365 365 366 365 365 365 365 365 365 365 364 364 364 363 362 360 358 357 354 353 353 353 352 352 352 352 354 356 358 359 359 359 359 358 358 359 358 358 358 358 357 355 355 353 352 351 350 349 348 347 346 346 345 343 341 338 337 336 335 335 334 332 332 332
367 368 368 367 366 366 365 365 366 365 364 364 363 364 364 364 363 364 364 364 364 364 365 365 365 365 365 364 363 363 363 361 360 358 356 354 351 348 344 342 339 338 338 337 336 336 336 337 340 344 348 352 355 357 359 359 358 358 358 358 357 356 355 354 353 352 351 350 349 348 348 346 346 344 342 339 337 336 335 335 334 334 333 332 331
365 366 367 367 367 366 365 365 366 365 363 362 362 362 363 364 363 363 363 362 362 363 363 363 363 363 362 360 357 355 353 351 348 345 341 339 338 335 333 332 331 331 330 330 330 330 330 330 331 332 333 336 339 344 349 353 356 357 357 358 358 356 355 354 353 351 350 349 349 348 347 346 344 342 340 338 337 336 336 335 334 333 333 332 331
359 360 363 364 364 364 364 364 364 363 362 362 362 361 362 362 361 360 359 359 359 360 359 359 359 357 354 351 347 342 339 337 335 333 331 330 329 329 328 328 328 328 329 329 328 329 329 330 331 331 331 331 331 332 334 341 347 351 354 356 357 356 355 354 353 352 350 348 348 348 347 345 342 340 339 338 337 336 336 334 333 333 333 332 331
354 354 356 358 358 358 359 360 361 360 360 359 356 354 353 351 350 349 348 347 345 345 344 344 343 341 339 337 334 332 330 329 328 328 328 327 327 327 327 327 328 328 328 328 328 329 329 330 330 330 331 331 333 332 331 333 339 345 348 350 353 354 355 355 353 352 350 348 347 347 347 344 341 340 338 337 336 337 335 334 333 333 333 332 331
351 352 352 352 351 351 353 354 354 353 352 350 347 346 344 343 343 343 341 339 337 335 334 332 332 331 329 327 326 326 326 326 327 327 326 327 327 326 326 327 327 328 327 328 328 328 329 329 329 331 332 333 333 334 333 334 337 341 343 345 347 350 352 354 353 351 350 348 346 347 346 344 341 339 338 337 336 336 334 333 333 333 332 332 331
349 349 349 349 348 348 349 348 347 345 344 344 344 343 343 343 342 342 341 341 339 338 338 338 337 334 329 324 323 324 324 324 325 325 325 325 325 325 326 327 327 327 328 329 329 329 328 328 329 331 333 334 334 334 334 334 336 338 340 342 345 347 349 351 351 350 350 348 346 346 345 343 340 338 337 337 336 334 333 333 333 333 333 332 330
347 347 346 346 346 346 346 345 344 343 342 342 342 341 341 341 340 339 340 341 339 338 340 342 340 336 332 328 326 324 323 323 324 324 324 324 324 325 327 328 328 327 328 330 331 330 328 329 330 332 334 334 334 335 334 333 334 335 337 339 342 344 347 348 349 349 348 347 345 345 343 341 340 338 337 337 335 333 333 333 334 334 333 331 327
347 347 345 340 336 334 334 335 335 336 338 340 342 342 341 340 340 340 341 341 339 339 340 341 340 339 338 336 331 325 323 324 326 325 325 324 324 326 328 328 328 328 329 330 331 329 328 330 333 334 334 334 334 334 334 334 334 333 333 335 337 340 344 346 347 348 347 344 343 342 341 340 339 338 337 336 334 333 333 334 334 333 331 327 323
346 346 343 339 334 330 329 330 333 335 337 340 342 343 342 341 341 342 343 342 341 340 341 340 340 340 340 339 335 329 327 326 326 328 330 329 327 328 330 331 329 328 329 331 331 330 330 333 334 333 334 334 334 334 334 334 334 334 333 332 334 336 340 343 345 346 345 343 342 342 340 338 338 337 336 335 333 333 334 333 332 329 326 324 322
341 341 342 342 342 339 336 338 340 341 342 342 341 341 342 343 342 342 342 342 342 341 340 339 339 338 339 338 336 334 332 329 328 331 335 334 330 330 332 333 331 329 330 331 332 331 333 334 333 333 333 334 334 335 335 335 336 335 334 333 332 332 335 341 344 344 343 341 341 341 339 337 336 336 335 333 333 333 332 330 328 326 324 322 321
340 341 341 342 342 342 341 342 342 341 342 342 342 341 342 341 341 341 341 341 341 340 339 338 339 339 338 337 337 336 335 333 332 333 335 335 333 331 331 332 332 331 332 332 332 332 333 333 333 333 333 333 333 334 334 334 335 335 335 336 334 333 334 338 342 343 341 340 340 339 337 336 335 334 333 333 333 331 329 326 325 324 323 321 321
342 342 342 341 341 341 342 342 341 342 343 343 342 342 342 341 341 341 341 341 340 339 339 339 339 339 338 338 337 337 336 335 334 334 335 335 333 331 330 331 332 333 333 333 333 333 331 330 330 332 333 332 333 333 333 333 335 335 335 336 336 335 335 337 339 339 338 338 337 335 334 333 333 333 333 332 330 328 325 323 323 324 323 323 324
342 342 342 341 341 341 341 341 341 341 342 342 342 342 341 341 341 340 340 340 340 339 339 339 339 338 338 337 337 337 336 336 336 335 334 333 332 332 331 331 332 333 333 334 333 333 330 326 328 332 333 333 333 333 333 333 334 334 334 335 336 336 336 337 338 338 336 334 333 333 333 333 333 333 332 330 327 325 323 323 323 324 325 325 325
340 340 339 339 339 338 338 339 339 339 339 339 339 339 339 339 339 339 339 339 339 339 339 338 338 337 337 337 336 337 337 337 335 334 333 332 332 333 333 332 333 333 334 334 333 333 331 327 326 331 333 333 333 334 334 334 333 333 332 333 334 334 333 333 334 334 333 333 333 333 333 332 332 331 329 327 325 324 323 324 325 326 326 325 324
336 336 336 336 336 335 335 335 336 335 336 336 335 335 336 337 337 337 337 337 337 337 337 336 337 337 336 336 336 337 336 336 334 333 331 332 333 333 333 334 333 333 333 333 332 333 333 331 327 328 329 328 329 330 332 331 331 331 332 332 332 332 332 332 332 332 332 332 332 332 330 330 329 327 326 324 323 324 325 326 326 326 325 324 323
334 334 333 333 333 333 333 333 333 333 333 332 332 332 332 332 332 332 332 332 333 333 333 333 334 335 335 335 335 335 334 333 332 332 331 333 333 333 333 334 334 333 333 332 332 333 334 333 329 327 327 325 324 325 327 326 325 326 328 328 328 328 328 328 329 329 330 330 329 328 327 327 326 326 325 324 323 324 325 326 326 326 325 323 322
331 331 331 331 331 331 330 330 330 330 329 329 328 328 327 328 328 328 328 329 329 329 329 330 330 331 332 333 333 333 332 331 331 331 332 332 332 332 332 332 333 332 331 332 332 333 334 334 331 330 330 329 326 325 325 324 323 324 324 324 324 324 324 324 324 324 324 325 325 325 325 326 326 327 327 326 325 325 324 324 324 324 323 322 320
328 328 328 328 328 328 327 327 327 327 326 325 325 326 326 326 327 327 327 327 327 328 328 328 328 329 330 330 330 330 330 330 330 331 331 331 331 331 331 331 331 331 330 331 332 332 333 333 333 332 332 331 329 327 326 325 324 323 323 323 323 322 323 325 325 323 322 323 323 323 324 325 327 327 327 326 325 324 323 322 321 320 320 319 318
324 324 324 324 324 324 324 324 323 323 323 324 325 325 325 325 326 326 327 327 327 327 327 327 327 328 329 329 329 329 330 330 330 330 330 330 330 330 330 330 330 330 330 330 331 331 332 332 332 332 332 331 330 330 329 328 326 325 325 325 324 323 322 323 323 323 323 323 324 324 325 326 325 326 325 324 323 323 321 320 318 318 317 317 316
321 321 321 320 320 320 320 320 320 320 320 322 323 323 323 324 324 324 324 324 324 325 325 325 325 326 327 328 328 329 329 329 329 329 329 329 329 329 329 330 330 330 330 329 330 329 330 331 331 331 331 331 331 330 330 330 329 328 327 327 327 326 325 324 325 325 326 326 326 326 326 325 324 324 324 322 321 320 319 317 317 316 316 316 315
318 318 318 317 317 316 317 318 319 319 320 321 321 321 321 321 321 321 321 321 322 322 323 323 324 324 325 326 327 328 328 328 328 328 329 330 329 328 328 329 329 329 329 329 329 329 329 329 330 330 330 330 330 329 329 329 329 329 328 329 328 328 327 327 326 326 326 325 325 325 324 323 323 322 321 320 318 317 317 316 316 316 316 315 315
315 315 314 315 315 314 314 316 317 319 319 319 319 319 320 320 319 318 318 319 319 320 320 321 321 322 322 324 325 326 328 328 328 328 329 329 328 328 327 327 327 328 328 328 328 329 329 329 329 329 329 329 328 328 327 327 327 327 327 327 327 327 326 326 325 324 324 323 323 323 322 321 320 319 317 317 316 316 315 315 315 315 315 315 314
Wind_Speed
47 47 46 45 45 45 44 44 43 43 42 41 41 41 40 39 37 36 34 33 32 31 31 30 29 28 27 28 28 28 27 26 26 26 26 26 26 25 25 25 25 25 25 25 25 25 25 24 24 24 25 26 26 25 24 23 23 23 21 21 20 19 19 20 20 18 16 16 13 12 14 15 16 16 15 15 16 15 13 13 15 16 16 16 15
49 48 47 46 46 46 45 44 43 43 43 43 43 42 40 39 38 36 35 34 33 33 32 32 31 30 29 28 29 28 28 28 28 28 28 28 28 27 27 27 27 26 26 27 26 26 26 25 25 25 26 27 27 27 26 25 25 25 24 23 23 22 20 20 21 21 19 19 17 16 14 12 14 16 16 16 17 17 16 15 15 16 17 16 16
48 49 49 48 47 46 46 45 44 44 44 45 44 43 42 40 39 38 36 35 34 34 33 32 32 32 31 31 30 30 29 30 30 30 30 30 30 29 29 29 29 28 28 28 28 27 28 27 26 26 27 27 27 28 28 26 26 26 25 24 24 24 23 22 22 22 21 20 20 20 19 17 16 18 18 18 19 19 19 18 18 17 17 17 17
46 48 49 49 48 47 47 46 46 45 45 45 44 43 43 42 41 40 38 36 35 34 34 33 33 33 33 33 32 32 32 32 32 32 32 32 32 32 31 31 31 31 30 30 29 29 28 29 28 27 27 28 28 27 27 27 27 27 26 25 25 25 24 24 24 23 22 22 21 21 21 21 21 21 21 20 21 20 20 20 20 19 17 17 17
45 46 48 49 49 49 48 47 47 47 46 46 45 44 44 43 42 40 40 39 36 35 35 35 34 34 34 34 34 34 33 33 34 34 34 34 33 33 33 33 33 33 32 31 31 30 30 29 29 28 28 28 29 28 28 28 28 29 29 28 27 26 25 25 25 24 24 24 23 22 21 21 21 22 22 22 22 22 20 20 21 21 19 18 18
43 44 46 48 50 50 49 49 48 48 47 46 45 45 44 43 42 41 40 39 38 36 36 36 36 36 35 35 35 35 35 34 35 35 35 35 34 34 34 34 33 34 33 33 32 32 31 30 30 30 30 30 30 29 29 29 29 30 30 30 29 27 27 26 26 26 26 25 24 23 23 23 23 24 24 23 23 23 22 21 21 22 21 20 20
41 42 43 45 47 49 49 49 49 48 48 46 45 44 43 43 42 40 40 39 38 37 37 37 37 37 37 36 36 36 36 35 35 35 35 35 35 35 35 34 34 34 34 34 34 33 33 32 32 32 32 32 31 31 31 30 31 31 31 31 30 29 29 28 28 28 28 27 26 26 25 25 25 25 25 24 23 23 23 22 22 22 21 21 21
40 40 41 43 45 47 48 48 48 48 47 46 45 43 42 42 40 39 37 37 37 36 36 36 37 37 37 37 37 37 37 37 37 36 36 36 36 36 36 36 35 35 35 35 35 35 35 35 35 34 34 34 33 33 33 32 32 32 32 31 31 31 30 30 30 30 30 29 28 27 27 26 27 26 25 25 25 25 25 25 24 23 21 20 19
40 41 42 43 43 44 46 46 46 46 46 46 46 44 42 41 40 39 38 36 36 35 34 34 35 36 37 37 38 38 38 38 38 38 38 37 37 38 38 38 37 36 36 36 36 37 36 36 37 37 36 36 35 35 35 34 34 34 33 33 32 32 32 31 31 31 31 31 31 29 27 27 27 27 27 28 28 27 25 25 26 25 23 22 21
40 42 44 44 43 42 43 45 45 45 46 46 45 45 44 42 40 39 39 38 36 35 34 33 33 35 36 37 38 38 39 39 39 39 39 39 39 39 39 39 39 38 37 37 38 38 37 37 38 38 37 37 37 37 36 36 35 35 34 33 33 33 33 33 33 32 32 32 32 31 29 29 29 28 29 29 28 26 24 25 25 25 24 24 23
40 43 44 43 43 42 42 43 44 44 45 45 45 45 44 43 42 41 40 39 39 38 36 34 34 34 36 38 39 40 40 40 40 40 40 40 40 40 40 40 40 40 40 39 40 39 39 39 39 39 38 39 39 38 37 37 36 36 35 34 34 34 34 34 34 34 33 33 33 32 31 31 29 28 29 28 28 27 25 24 24 24 25 25 25
40 42 43 42 43 43 43 43 43 43 43 44 45 44 44 44 44 43 42 41 40 40 39 38 37 36 36 37 39 40 41 41 41 40 40 40 40 40 41 41 41 42 42 42 42 41 41 41 40 40 40 40 40 39 39 38 37 37 36 35 34 34 35 35 34 35 35 34 34 34 33 32 29 28 28 28 27 26 25 24 23 23 24 25 25
38 41 43 43 43 43 43 43 44 44 43 43 44 44 44 44 44 44 43 42 41 42 42 42 41 39 38 38 39 40 40 39 40 40 40 40 40 40 41 42 42 43 43 43 43 43 43 43 42 42 41 41 41 41 41 40 39 38 37 37 36 35 36 36 35 35 35 35 36 36 35 32 29 28 27 26 26 26 27 26 24 23 24 26 26
37 39 42 44 43 42 43 43 44 44 44 43 43 43 44 44 44 43 43 42 43 44 44 43 43 42 41 41 41 40 40 39 39 39 39 39 39 40 41 43 44 44 45 44 44 44 45 45 44 44 42 41 41 42 43 42 41 40 39 39 39 38 38 38 38 37 37 37 37 38 36 33 30 28 25 25 26 28 29 29 27 26 25 25 24
37 37 39 43 43 42 42 43 43 44 44 43 42 43 43 43 43 43 43 43 44 44 44 44 44 43 42 42 42 42 41 41 40 40 39 38 38 39 40 43 45 46 46 46 45 45 45 45 45 45 43 42 42 43 44 44 43 42 42 41 41 41 41 42 41 40 39 39 39 39 37 34 32 29 25 25 27 28 28 29 28 26 25 24 24
39 38 37 40 43 43 42 42 43 43 42 42 42 43 43 43 43 42 42 42 42 43 44 44 43 43 43 42 43 44 44 42 42 43 42 40 39 38 39 41 44 47 47 47 46 46 46 45 45 45 44 43 44 44 45 44 44 44 44 44 43 44 45 45 44 43 42 41 40 40 39 36 35 32 28 28 28 28 28 29 28 27 26 26 26
40 40 38 39 41 42 42 42 42 42 41 42 42 42 42 42 41 41 41 41 41 42 43 43 43 43 43 44 45 46 46 44 42 42 42 42 40 40 40 40 42 45 48 48 47 46 46 46 45 45 45 45 44 44 44 44 44 45 46 45 45 46 47 47 46 46 44 42 41 41 40 38 37 35 32 30 30 31 32 32 31 31 30 29 28
40 40 39 38 39 40 41 41 41 41 41 41 41 41 41 40 40 40 39 39 40 39 39 39 41 42 43 44 44 45 45 44 43 43 42 42 42 42 42 41 41 44 46 47 48 47 47 48 47 47 47 46 45 44 44 45 45 46 47 47 47 49 49 48 47 48 46 44 43 42 42 41 40 39 36 34 33 33 35 35 34 33 31 30 27
39 39 38 37 36 38 39 39 39 40 40 40 39 39 39 38 38 38 38 38 38 37 35 35 36 37 38 39 40 41 41 41 41 42 41 41 42 43 42 42 43 45 45 46 47 48 48 48 48 49 49 47 46 45 45 46 47 47 48 49 51 52 51 48 48 49 49 47 45 44 44 44 43 42 41 39 37 37 37 36 34 30 27 25 23
35 36 36 35 35 36 37 38 37 37 38 38 38 37 36 36 35 35 35 35 35 34 34 33 33 32 32 32 33 34 36 36 36 37 38 38 40 42 42 43 45 45 45 45 46 48 49 49 48 48 48 47 47 48 48 48 49 49 49 51 53 54 51 48 49 50 50 49 48 47 46 45 44 43 44 44 42 40 37 35 33 30 25 23 23
30 31 32 33 33 34 36 36 35 34 35 35 35 35 34 33 33 32 32 32 32 32 32 32 31 30 29 28 28 28 29 30 31 32 32 33 35 37 40 42 44 44 43 44 46 47 48 48 47 47 47 47 48 49 51 51 51 50 51 53 54 52 50 49 49 50 50 50 48 47 46 45 44 43 44 45 45 43 40 37 37 35 31 29 27
25 27 29 30 31 31 32 33 33 32 32 32 32 32 32 31 30 30 29 29 28 28 29 29 28 28 27 27 27 27 26 26 28 29 29 30 30 32 36 38 39 40 42 44 45 46 46 45 44 44 45 45 46 48 51 53 53 52 52 53 52 50 49 48 48 48 49 49 48 47 47 45 44 44 45 46 47 47 45 44 43 40 37 34 30
21 23 25 27 28 28 28 30 30 30 31 30 30 29 29 28 27 27 27 27 26 26 26 26 26 26 26 25 25 25 25 25 27 28 28 28 27 29 33 34 35 37 40 42 43 43 43 43 42 41 41 42 43 44 48 51 53 54 54 52 50 50 49 48 47 46 47 48 48 48 48 46 44 44 44 45 46 47 47 47 46 42 39 36 31
17 20 22 25 26 26 25 26 26 27 27 27 27 27 26 26 26 25 26 26 25 25 25 25 25 25 24 23 23 23 23 23 24 26 27 27 27 28 30 31 32 34 37 39 40 41 41 40 40 39 40 40 41 41 43 46 50 53 53 51 50 51 50 49 48 48 48 49 50 50 50 49 47 45 43 43 42 41 40 43 46 45 41 39 35
16 18 20 22 24 24 23 23 23 23 22 23 24 24 23 23 24 24 24 24 24 24 23 23 23 22 21 21 21 20 20 20 21 23 25 26 27 28 28 29 30 31 34 36 37 37 38 38 38 39 40 41 41 41 42 43 45 49 51 51 51 53 53 52 50 50 51 53 54 53 52 51 48 46 44 40 38 36 33 32 34 35 36 37 36
15 16 18 20 22 22 22 21 21 20 20 20 21 21 20 20 21 22 22 22 22 22 21 20 20 20 19 19 19 19 18 16 16 19 22 23 24 25 26 26 27 29 33 36 37 37 38 37 36 36 37 39 42 44 45 44 43 46 50 52 53 55 56 55 53 53 55 57 56 55 54 52 49 46 43 37 34 35 34 29 26 25 27 29 33
14 15 16 18 19 21 20 20 20 19 18 17 17 17 17 17 17 18 18 18 18 19 18 18 18 17 17 17 17 16 15 14 16 19 20 21 22 23 23 23 23 24 28 32 36 39 40 41 41 40 39 40 43 46 49 49 48 48 50 53 55 57 59 59 58 57 58 58 57 55 53 51 49 46 43 39 36 36 35 33 30 28 26 26 31
13 14 15 16 18 19 19 18 19 18 17 17 18 17 16 16 18 19 18 18 17 17 16 16 16 15 15 15 14 13 12 13 16 17 16 15 16 17 19 20 21 22 24 26 29 33 37 40 44 46 48 50 51 51 52 53 54 54 53 54 56 60 61 61 61 60 59 59 58 55 51 50 50 47 43 40 39 39 37 36 35 33 31 31 33
14 14 15 15 17 17 17 17 17 18 20 20 20 20 20 19 21 22 22 21 19 17 16 16 16 16 16 15 14 13 13 13 14 15 16 16 17 19 21 22 24 26 27 29 32 34 35 37 40 44 48 52 55 57 58 59 60 60 59 57 58 61 64 64 63 62 60 58 57 55 52 50 49 46 43 42 42 42 41 41 39 38 36 35 35
15 16 17 18 18 18 19 17 14 18 23 22 19 20 22 20 19 19 20 20 19 17 16 16 15 16 16 14 12 12 13 14 14 16 18 20 21 22 22 23 25 26 28 30 32 34 35 36 39 43 46 49 53 57 60 61 62 62 62 61 60 62 65 66 65 64 61 59 58 57 54 51 49 46 45 45 45 44 44 44 43 42 40 38 37
14 15 18 20 20 21 21 18 14 15 19 20 18 18 19 17 16 15 15 16 17 18 17 16 15 14 14 13 12 12 13 14 15 16 16 17 19 19 20 21 22 24 27 29 31 32 34 35 38 41 44 48 52 56 59 62 63 63 64 65 64 63 64 66 66 64 62 61 60 56 52 50 49 48 47 47 46 46 46 45 44 43 43 42 40
12 12 15 17 17 18 20 18 15 16 15 15 15 14 13 13 13 12 11 11 11 12 13 14 14 13 13 12 11 10 10 11 11 12 13 14 15 16 17 18 19 22 24 26 29 31 32 34 37 39 41 44 49 53 57 60 62 62 63 65 66 66 67 68 69 67 65 63 59 56 53 50 49 49 50 49 48 48 48 47 46 46 45 43 41
13 13 15 15 14 15 17 16 14 15 14 12 10 8 6 7 7 7 7 7 6 6 6 7 8 8 8 8 8 8 9 9 10 11 13 14 15 17 17 17 18 20 22 24 27 29 30 32 35 37 38 41 45 49 54 59 61 61 62 65 69 70 71 72 71 69 66 63 60 59 59 56 55 54 53 52 52 52 51 48 45 45 44 43 40
15 15 15 15 15 15 16 15 14 15 16 15 14 13 11 9 8 7 6 5 5 4 3 3 4 4 4 5 6 7 9 10 11 13 14 16 18 20 21 20 19 21 24 26 27 29 31 33 35 37 39 40 41 44 50 56 59 60 62 66 70 73 74 74 73 72 69 66 64 64 64 62 60 58 56 54 53 52 50 47 45 44 43 41 37
18 17 16 16 17 16 16 17 17 17 17 16 15 15 14 13 11 10 9 7 6 4 2 1 4 5 6 6 5 6 8 9 11 13 15 17 19 20 21 21 22 24 26 28 29 32 35 38 41 42 43 43 43 43 46 50 54 58 63 67 70 72 72 71 72 74 74 70 68 67 66 64 63 60 57 56 55 52 49 47 47 46 44 41 38
17 17 15 15 16 16 16 17 19 19 17 15 13 12 11 10 9 8 7 6 5 5 3 2 5 6 8 8 6 7 9 10 12 15 16 17 18 19 20 22 24 26 27 29 31 35 39 42 43 44 45 46 46 46 46 46 47 51 57 63 66 68 68 67 68 71 73 72 70 68 66 64 63 62 60 59 57 53 50 48 47 46 44 41 38
16 15 15 14 14 16 16 16 16 15 14 12 11 9 8 8 7 7 6 4 3 4 3 2 3 4 6 9 10 10 11 12 14 17 17 17 18 19 20 21 23 25 27 29 32 37 41 42 42 44 46 47 48 48 49 48 46 46 50 56 62 66 68 67 68 71 72 69 67 66 65 64 64 64 62 60 57 53 51 49 47 44 40 36 32
15 15 16 15 14 15 15 14 13 11 10 9 8 7 6 6 6 5 4 3 2 3 3 1 3 2 5 10 14 14 14 15 17 17 17 19 20 20 19 20 22 25 28 29 32 37 41 40 40 43 46 47 48 48 49 50 49 46 45 47 53 61 66 67 68 71 71 69 66 65 63 62 62 63 62 59 55 52 49 46 43 39 35 30 25
13 15 16 16 13 12 13 12 10 9 8 7 6 6 5 4 4 3 2 2 1 1 1 4 5 3 5 10 15 17 17 19 19 17 16 19 21 20 19 21 24 26 27 28 31 35 38 37 38 42 45 46 47 46 46 49 50 49 47 46 47 53 58 62 64 66 67 67 67 68 65 62 60 60 58 55 52 48 44 41 38 35 30 24 22
15 16 17 16 13 11 11 10 8 8 8 6 5 4 4 3 2 2 2 1 2 4 5 6 6 6 9 13 16 18 20 20 18 15 15 18 20 20 21 23 24 25 26 27 29 32 33 33 36 40 41 42 44 45 44 44 45 46 47 46 45 44 48 54 58 62 65 66 67 68 66 63 61 60 55 50 47 43 39 35 34 30 23 20 21
14 14 13 12 11 11 11 10 8 7 7 6 5 4 4 3 2 3 5 5 5 6 6 7 8 11 13 14 16 18 18 17 14 13 14 17 19 20 22 22 23 24 25 25 27 28 28 29 34 36 36 36 39 41 37 32 34 40 42 43 44 44 44 47 50 51 52 55 59 61 59 56 56 55 50 44 40 38 34 30 28 25 21 20 22
14 13 10 9 11 13 13 10 7 6 7 8 6 5 6 5 5 6 7 7 7 6 6 7 9 10 12 14 17 17 13 11 11 14 16 18 19 22 21 20 22 24 24 24 24 25 25 27 31 32 31 31 30 28 24 19 17 21 19 18 25 24 22 36 49 47 41 43 49 52 51 48 46 44 40 37 35 33 30 27 26 24 22 22 24
13 14 13 11 12 13 12 11 10 10 11 11 9 7 8 8 7 6 6 6 4 4 6 7 7 8 11 13 14 13 9 8 12 16 18 19 21 21 20 20 22 23 22 21 21 22 23 24 25 26 26 29 29 26 24 25 27 27 24 19 18 20 27 37 44 45 44 45 45 45 44 43 39 35 33 33 31 30 28 27 26 25 24 23 23
13 14 15 14 14 13 13 13 13 12 11 11 8 6 5 5 3 2 2 2 1 2 5 7 6 7 9 9 10 10 10 11 14 17 18 18 19 19 19 20 21 20 18 19 19 19 20 20 19 19 20 24 28 28 28 30 33 34 36 37 37 36 36 37 40 42 42 41 38 35 33 31 30 28 28 27 26 26 26 26 26 25 25 23 21
15 15 16 16 15 15 14 13 12 10 7 7 7 5 3 2 3 3 4 3 3 3 6 7 7 7 8 8 8 10 11 13 16 18 18 16 16 17 19 20 19 16 16 17 17 16 16 17 16 14 13 15 19 22 23 25 28 29 29 31 34 34 32 31 32 32 30 29 30 27 23 21 22 24 25 25 24 24 24 24 25 25 25 23 21
18 18 17 16 14 14 13 13 12 9 7 7 8 8 7 7 7 6 6 6 6 6 7 8 8 8 8 8 9 11 13 17 19 19 16 14 14 16 18 17 15 14 15 15 14 14 14 13 13 12 10 10 13 16 17 19 22 23 22 22 24 25 24 22 22 22 20 20 21 21 20 21 23 25 26 26 25 24 22 22 22 23 24 23 22
20 20 20 18 17 16 15 15 14 12 11 12 13 13 12 12 11 9 9 9 8 8 9 10 10 9 8 9 11 12 15 18 17 15 13 13 14 15 15 14 13 13 15 14 12 11 11 9 9 8 7 7 9 11 13 16 18 19 19 20 21 22 20 17 16 16 16 15 16 18 21 24 24 24 24 23 22 21 21 20 20 20 21 22 22
21 21 21 20 19 19 18 17 17 16 15 15 16 17 17 16 15 14 13 12 11 11 11 11 11 9 8 8 9 10 12 13 13 11 12 13 14 14 14 13 12 12 12 11 10 9 8 6 5 6 4 3 4 6 8 9 12 14 15 14 14 16 18 17 16 15 14 14 16 18 20 21 21 21 21 20 19 19 20 19 18 19 20 21 21
22 22 21 21 21 20 18 16 16 16 16 16 17 18 18 18 18 17 16 13 13 13 12 12 12 10 9 8 7 5 6 8 9 9 10 12 14 15 15 13 12 11 10 9 9 9 6 4 4 4 2 1 1 3 4 5 6 9 11 12 12 13 14 16 16 17 17 17 17 18 19 18 18 18 18 17 17 17 19 19 18 18 20 22 21
24 23 23 22 22 21 19 17 16 16 15 16 17 19 19 19 19 19 18 16 16 15 15 14 13 11 10 9 6 3 3 5 7 7 7 8 10 13 15 14 10 9 8 7 7 6 6 4 4 2 1 2 2 3 4 6 7 8 9 10 11 12 14 15 16 16 16 16 15 15 15 15 15 15 15 16 16 17 19 20 18 17 19 21 21
25 25 24 23 23 23 22 21 19 17 16 16 17 18 18 19 20 20 20 19 19 18 17 16 14 13 10 8 6 3 2 3 5 6 7 8 8 10 12 12 9 6 5 4 3 3 3 3 2 2 2 3 3 5 6 8 9 9 9 9 10 10 11 11 11 11 11 11 12 12 12 13 14 15 16 16 16 17 19 20 18 16 17 19 20
Wind_Direction
216 217 218 220 220 221 222 223 223 224 225 225 226 228 229 228 228 229 229 230 232 232 232 230 229 230 230 229 227 230 235 236 237 235 234 235 235 236 237 235 235 237 238 240 243 244 246 247 243 237 229 223 224 225 221 224 233 237 237 237 239 238 230 227 227 224 223 221 218 225 243 254 257 259 259 257 260 264 260 253 253 257 262 267 270
218 218 218 220 221 222 223 223 224 224 224 225 226 228 229 229 230 229 228 230 231 232 235 234 231 228 229 231 230 231 234 235 236 236 236 236 237 237 238 238 237 236 236 238 242 246 247 248 246 242 237 232 229 230 227 225 230 237 239 237 238 240 238 236 236 234 232 229 223 219 226 242 253 255 252 251 257 263 264 261 258 259 264 267 269
220 218 217 220 221 222 224 224 225 224 224 226 227 229 229 230 230 229 228 229 230 231 234 235 234 231 229 230 231 231 232 233 235 237 238 238 238 239 239 239 240 238 237 238 241 245 247 248 249 246 242 239 236 235 234 230 230 236 241 240 238 239 240 240 240 240 238 236 232 228 226 226 235 244 248 251 255 258 259 262 262 261 261 262 265
220 220 218 219 221 221 222 224 225 225 226 227 228 230 231 232 232 232 230 229 229 231 233 233 235 236 233 230 230 230 230 232 233 235 238 241 241 241 241 242 243 243 242 242 242 243 246 248 250 249 244 242 241 240 239 236 232 233 239 242 241 240 240 241 242 243 242 240 237 236 235 234 236 240 245 249 254 255 255 256 261 264 261 259 261
218 222 221 219 221 221 221 223 226 227 228 229 230 231 232 233 234 234 233 231 230 231 233 233 233 236 236 233 230 231 231 231 232 233 236 240 242 242 242 242 244 245 246 246 244 244 245 247 250 251 247 244 244 244 243 242 238 235 237 241 242 240 239 240 243 244 243 243 242 238 236 237 240 244 245 245 249 254 254 250 253 259 261 257 256
213 218 222 221 221 221 220 222 225 228 230 230 231 232 232 232 234 236 237 235 231 230 232 234 234 235 237 237 233 232 232 232 233 234 234 236 238 241 242 243 244 245 245 246 246 245 246 247 249 250 249 247 247 247 247 245 243 239 238 240 242 241 238 238 240 242 243 244 244 241 237 235 237 243 246 245 245 248 252 251 249 252 255 255 253
208 213 219 221 221 221 221 222 224 228 230 230 230 231 231 231 232 234 237 237 235 232 232 234 237 236 237 238 237 234 234 235 235 236 236 234 234 237 240 242 244 244 243 244 245 246 247 247 247 249 250 250 250 250 250 248 246 244 242 241 241 241 240 238 236 238 241 243 242 241 240 237 237 240 244 246 246 245 246 248 249 250 251 253 253
208 210 214 218 221 222 222 223 225 228 230 230 229 228 227 228 228 228 231 234 235 233 230 232 236 237 236 238 239 236 236 238 238 237 237 235 233 234 238 240 241 242 243 243 243 246 248 247 247 249 250 251 252 252 252 251 248 246 244 242 240 241 241 239 236 236 237 240 242 243 243 240 239 239 240 241 242 244 242 240 244 251 254 255 255
209 210 214 217 220 222 223 223 225 227 228 229 229 227 226 226 226 226 226 229 232 232 230 229 232 234 235 236 237 238 239 241 240 239 238 237 235 234 236 239 240 241 242 242 242 245 247 246 247 250 252 252 253 254 254 253 252 250 247 244 241 241 241 240 238 237 235 236 238 240 241 241 239 238 238 239 242 247 247 240 239 244 250 256 259
211 211 215 218 218 221 223 224 225 226 225 227 229 229 227 226 226 226 225 226 229 230 229 227 227 231 234 234 235 237 241 243 243 243 242 241 240 237 236 238 239 240 241 241 241 243 244 244 245 249 252 254 254 254 253 254 254 254 252 249 246 244 242 240 239 238 237 236 236 236 237 240 240 238 239 242 245 248 248 243 240 241 243 247 253
213 213 215 217 217 219 223 225 225 226 225 226 228 229 229 228 227 227 226 225 226 229 230 228 226 227 231 235 236 238 241 245 246 246 246 245 244 242 239 239 240 240 241 241 241 242 243 243 244 245 248 251 253 253 252 253 254 255 252 251 251 249 246 244 242 240 238 237 237 236 235 238 241 241 240 241 243 245 247 245 243 242 241 240 244
215 215 214 216 217 218 221 224 226 227 227 226 227 229 229 229 228 227 226 225 225 226 229 230 228 226 228 233 237 239 242 246 248 248 248 247 247 245 243 241 241 241 242 242 243 243 243 243 243 242 243 247 250 251 252 252 253 254 253 251 251 251 250 249 248 245 242 240 239 238 238 239 241 241 238 237 239 242 244 245 244 241 241 242 243
215 216 215 215 217 218 219 222 225 228 229 227 226 227 228 229 229 227 226 226 226 226 228 230 231 229 227 229 235 239 242 245 248 250 251 249 248 247 245 243 243 244 244 244 244 244 245 244 242 241 242 244 246 248 250 251 251 252 253 251 250 250 250 249 250 249 248 246 244 243 242 241 241 242 240 236 234 236 239 242 244 242 240 242 245
215 218 216 215 217 218 218 221 224 226 228 227 225 225 227 229 229 227 225 225 226 227 227 229 231 232 230 229 232 236 240 243 246 249 251 250 249 247 246 245 245 246 247 247 246 246 247 246 244 243 242 241 244 246 247 248 248 249 249 249 249 250 248 247 247 246 246 245 245 246 245 243 243 244 243 236 230 231 236 240 241 244 245 244 244
215 218 217 215 216 217 218 220 223 224 225 225 225 226 227 228 228 227 225 224 226 227 228 229 230 232 233 231 231 234 238 241 245 247 250 251 250 248 247 245 244 245 246 248 248 248 249 248 247 246 243 241 243 246 246 246 246 246 246 247 249 250 249 249 248 246 245 246 246 246 245 243 244 244 240 235 230 230 236 240 243 246 248 245 241
214 218 219 216 215 216 218 219 221 223 224 224 226 227 228 228 229 228 226 225 227 228 229 230 230 231 233 234 234 236 237 238 242 246 248 250 249 249 249 246 243 243 243 245 246 248 249 248 247 247 246 244 244 246 247 246 245 245 245 247 249 249 249 251 251 248 248 250 249 245 243 242 243 242 238 235 232 230 233 238 239 239 239 238 236
215 217 219 217 216 216 217 219 220 223 224 226 227 228 228 229 229 229 228 227 228 230 231 232 232 233 235 236 237 239 239 238 240 243 246 248 248 248 248 248 246 244 243 242 244 246 248 248 247 247 246 246 245 245 246 245 245 245 245 246 248 249 250 252 250 247 249 251 250 247 243 241 241 240 237 234 232 230 230 231 232 233 233 232 233
218 217 219 219 217 215 217 219 221 223 225 227 229 230 229 229 229 230 230 230 230 231 232 233 234 235 236 237 239 242 242 242 241 242 243 245 247 248 249 248 248 248 246 244 243 244 246 248 248 247 246 246 246 246 246 244 244 245 245 244 245 247 250 251 248 246 247 248 247 246 243 241 239 239 238 235 232 233 233 231 231 232 233 234 235
220 218 218 220 218 216 217 219 221 224 225 227 230 231 231 230 230 231 232 232 232 232 231 233 235 236 237 238 240 242 244 245 245 245 245 245 245 248 249 248 249 250 249 247 246 245 246 247 248 248 248 247 246 248 248 245 243 244 244 243 242 245 249 251 249 248 247 246 245 243 242 241 239 238 239 237 234 234 235 235 233 231 231 234 236
222 220 218 220 219 217 217 219 221 224 226 228 230 230 230 230 230 230 232 233 233 231 230 231 234 235 236 237 239 242 244 245 246 247 249 248 247 247 247 248 249 249 249 249 249 249 248 247 248 249 250 248 247 249 250 248 245 243 242 242 244 247 249 250 250 250 249 247 246 244 243 242 239 237 238 238 235 233 234 235 233 229 224 226 231
222 220 218 219 220 217 218 220 221 223 226 228 229 228 228 227 227 227 229 231 232 231 229 230 231 233 235 237 238 240 242 244 246 248 249 249 248 247 247 249 250 250 250 252 252 253 253 251 250 250 251 250 249 250 251 251 249 245 243 245 250 252 251 248 248 248 246 245 245 243 241 242 240 235 234 235 235 232 230 231 233 231 225 220 223
221 220 217 216 217 217 218 220 221 223 225 226 226 225 224 223 223 225 226 226 228 229 229 228 228 229 234 236 238 240 241 244 249 252 253 252 251 250 251 253 255 253 252 253 254 256 257 256 254 254 254 254 253 253 254 254 251 248 248 250 252 252 250 247 246 243 241 240 239 238 238 238 237 233 231 233 234 232 229 231 233 233 230 226 223
220 219 216 215 215 216 217 218 220 222 223 223 223 221 220 219 218 221 222 221 223 226 226 226 227 228 232 235 237 240 241 242 247 253 257 259 258 258 258 260 261 258 255 255 256 258 260 260 260 259 259 259 258 258 258 257 253 251 251 252 251 249 247 245 242 238 236 235 233 234 235 235 234 232 229 230 233 233 231 231 232 232 232 231 230
219 218 215 214 213 213 215 216 217 218 218 219 219 217 216 215 214 217 219 217 218 223 225 226 228 230 232 235 237 240 242 244 248 251 255 258 259 261 262 263 264 262 260 259 259 260 261 263 264 264 263 263 261 261 260 258 256 255 254 252 251 248 244 240 237 233 232 231 230 230 232 233 233 232 230 228 230 232 231 228 230 231 232 232 230
210 211 209 211 210 209 211 212 211 211 211 212 214 212 212 213 212 213 216 216 217 220 223 226 229 232 235 237 239 242 243 245 249 252 256 259 260 261 263 264 265 265 264 264 265 265 265 266 267 268 268 268 265 262 259 258 257 257 255 252 251 247 241 237 234 230 229 230 229 228 229 232 233 233 232 229 227 226 224 220 222 226 228 228 226
197 200 200 203 204 203 205 205 204 204 203 206 209 208 207 208 209 209 212 214 217 220 221 224 228 233 238 240 243 246 247 247 251 255 258 258 259 261 262 263 264 263 262 262 263 265 266 267 268 269 270 270 267 264 262 260 259 257 253 250 249 245 239 236 232 229 229 229 228 226 226 229 231 230 228 225 219 215 212 207 204 208 212 213 215
189 190 192 197 197 194 195 196 197 197 197 197 201 203 203 204 206 209 210 209 213 218 218 220 224 227 234 241 245 250 250 247 247 250 253 255 257 259 262 265 265 264 262 262 262 263 263 264 264 265 266 266 266 265 264 262 260 257 254 250 247 243 239 236 234 232 230 229 229 227 225 225 224 222 220 216 210 205 204 202 198 198 199 197 201
181 182 185 190 189 187 187 187 188 189 189 192 195 196 198 201 203 205 205 204 208 213 215 218 220 220 223 228 230 230 229 230 235 243 253 261 264 266 270 272 273 272 271 270 269 267 265 264 263 262 261 260 261 261 261 260 259 258 255 251 247 243 240 237 235 233 231 229 229 227 222 219 218 218 215 208 202 199 201 201 199 198 198 198 198
170 174 176 176 178 178 176 177 183 187 188 191 193 191 190 196 201 200 200 201 203 203 203 205 206 209 215 220 221 220 222 228 239 251 262 271 277 281 285 287 288 288 287 285 282 278 275 271 269 267 264 262 261 260 259 259 259 258 256 252 247 243 239 236 233 231 229 228 227 225 220 216 214 212 207 201 198 199 201 201 201 201 201 202 203
159 157 156 160 164 167 168 168 174 184 190 193 192 187 185 190 195 196 197 203 208 209 210 210 209 213 222 229 235 242 246 251 259 267 274 279 284 288 291 292 291 291 289 288 287 286 285 281 278 275 273 270 267 265 263 261 258 256 255 254 250 244 239 236 234 232 228 226 225 223 220 214 209 204 200 198 199 200 201 202 203 203 203 204 206
158 154 154 156 158 163 167 164 150 155 173 183 185 183 182 184 189 195 201 207 212 216 221 227 230 233 240 248 254 258 261 264 269 272 277 282 286 289 293 295 295 293 291 290 291 294 296 293 287 283 279 275 272 271 268 264 260 256 254 254 252 247 241 237 235 232 228 225 223 221 218 213 206 200 197 197 199 200 201 203 203 203 204 205 205
165 162 161 162 160 161 168 166 150 142 151 168 180 184 187 188 189 193 198 208 219 226 231 239 244 246 251 255 257 259 260 263 267 272 278 283 288 294 302 308 309 305 302 300 300 302 304 302 297 293 288 281 277 275 271 266 262 258 254 252 251 248 243 239 236 232 228 224 219 216 216 212 204 199 197 197 198 200 202 202 202 202 203 205 207
147 145 152 160 162 163 166 167 159 147 142 149 161 168 178 185 180 177 182 192 205 214 220 227 231 233 238 242 248 255 261 267 274 279 285 292 297 302 309 315 318 315 312 311 310 310 310 308 305 301 297 289 284 280 275 268 264 260 255 252 251 249 246 242 236 231 226 222 217 215 215 211 203 199 198 198 199 201 201 201 201 201 203 205 207
131 129 135 141 142 145 151 155 152 144 138 136 136 132 130 127 123 124 130 129 133 148 167 192 207 218 241 259 266 272 275 280 287 291 296 302 305 306 308 312 317 320 322 325 325 324 323 320 316 312 307 300 291 284 277 270 264 260 256 253 251 249 246 241 234 228 224 219 215 213 212 208 202 198 196 195 197 198 198 199 200 201 203 205 204
120 118 118 119 120 124 130 136 137 133 132 134 136 135 131 125 124 129 127 118 115 111 74 297 258 265 284 286 286 296 301 304 307 308 308 309 310 312 313 316 323 331 334 335 335 334 332 331 327 323 318 311 301 291 283 275 268 261 258 255 253 250 245 239 232 226 222 218 213 209 207 203 199 197 195 194 193 194 196 199 201 202 203 204 203
109 108 109 116 124 127 129 133 133 128 123 122 123 123 123 122 122 124 126 129 136 126 117 269 283 301 313 317 333 346 340 334 329 324 321 320 320 323 325 328 333 339 341 339 337 335 333 332 330 327 324 318 310 300 291 284 275 267 262 258 256 253 248 241 232 225 219 215 210 206 202 199 196 194 193 192 191 194 197 199 200 202 203 202 200
108 105 105 115 124 126 127 131 132 127 120 115 112 111 115 120 117 115 129 153 153 133 145 235 304 323 315 319 338 352 349 342 336 333 334 334 331 330 329 331 335 338 339 339 339 337 335 333 331 330 327 321 314 306 298 290 283 276 268 263 259 256 251 244 236 227 218 212 205 199 196 195 193 191 190 190 190 192 194 195 197 200 199 195 192
123 117 112 110 112 116 116 112 107 103 98 97 101 104 108 116 115 116 134 148 121 120 144 304 340 319 293 312 329 339 342 341 340 343 344 340 336 332 329 330 334 337 339 340 340 338 338 337 336 334 331 324 317 310 301 294 289 283 277 270 264 259 254 248 239 228 217 207 199 194 191 191 189 188 188 188 186 185 187 189 192 192 188 186 190
118 117 110 102 97 101 101 94 90 96 98 95 102 110 112 113 113 108 118 126 98 70 4 351 345 312 290 309 320 325 329 334 340 346 343 335 333 332 328 329 333 337 338 339 339 339 341 341 340 339 336 331 325 315 303 295 289 285 281 278 272 265 258 250 240 226 212 200 192 189 188 187 185 184 184 183 182 181 183 185 186 183 181 187 201
104 108 106 102 99 98 97 94 93 98 98 94 100 108 101 92 83 52 29 27 356 335 334 347 349 325 309 310 312 312 317 327 338 345 338 329 328 329 328 328 331 334 335 337 338 341 345 349 349 346 341 336 328 319 311 301 291 284 282 279 275 270 264 253 236 216 203 194 187 183 183 182 180 180 179 179 180 180 178 177 180 181 186 199 206
99 99 102 106 105 102 105 110 108 101 98 98 99 98 88 75 48 15 4 359 349 335 327 332 336 327 316 313 311 309 314 328 339 335 325 321 321 324 328 328 326 326 330 334 338 340 347 356 358 352 346 342 335 328 324 315 298 291 288 279 272 270 263 243 220 199 187 181 175 170 169 170 170 172 174 175 177 174 170 170 174 179 188 201 204
94 91 88 92 90 87 89 93 91 89 89 83 73 70 63 43 23 18 15 4 351 345 339 333 333 331 325 321 318 317 322 333 328 312 308 312 318 324 328 327 323 323 326 332 337 338 343 357 3 359 355 359 357 350 349 351 333 318 305 267 253 254 229 197 187 179 168 160 155 154 156 160 163 166 170 172 171 167 165 167 171 175 185 196 198
90 88 83 82 82 81 80 75 67 66 68 62 56 66 67 52 40 39 33 17 7 14 3 346 339 339 334 328 326 325 323 314 304 303 309 316 322 325 326 325 325 326 326 331 337 336 334 347 5 11 11 16 21 22 27 35 36 37 51 84 117 121 121 133 145 149 147 144 144 146 150 154 156 160 164 166 166 164 164 168 172 178 187 194 195
84 85 82 77 73 72 73 69 64 67 71 65 57 66 74 63 56 63 41 14 14 25 7 355 347 345 340 334 327 320 311 302 305 314 323 328 327 325 324 326 329 330 327 329 337 338 330 333 354 17 24 25 30 37 45 50 51 52 57 66 79 90 95 100 109 119 127 132 134 137 139 142 147 154 160 164 167 169 170 174 179 184 190 194 198
78 79 78 75 73 73 75 72 69 73 82 73 57 51 50 41 30 22 8 351 336 347 355 353 347 343 345 343 334 325 316 312 317 326 334 337 331 325 325 329 334 334 332 332 337 339 333 331 341 1 18 24 28 38 50 55 57 61 64 64 66 72 77 84 92 101 109 117 123 128 133 142 152 159 162 166 172 177 178 182 188 193 195 198 202
79 79 75 75 77 80 78 73 66 57 52 52 46 36 27 25 22 14 2 351 343 344 352 354 350 347 348 344 338 332 326 324 329 337 344 342 332 327 329 336 341 339 338 341 342 337 334 336 340 346 360 15 22 33 49 58 58 60 64 68 71 74 76 80 86 93 103 116 127 135 146 156 161 164 166 170 175 180 183 187 194 198 201 203 204
76 76 72 69 69 70 67 63 57 47 41 45 47 43 39 38 34 28 23 15 3 355 353 349 346 347 350 348 344 338 333 332 338 349 351 342 335 334 338 344 349 347 345 349 350 340 334 338 342 343 353 15 25 33 49 63 67 68 69 73 78 85 90 96 103 108 118 133 145 151 159 165 169 172 176 180 184 189 193 197 200 202 202 202 201
78 78 77 72 68 65 64 63 60 55 53 54 55 52 48 45 40 35 32 27 16 9 3 356 350 346 341 340 345 350 351 351 353 357 356 354 353 355 357 2 4 358 351 350 349 342 335 333 335 336 344 21 42 45 52 62 71 80 87 93 95 96 101 112 123 131 140 150 158 163 169 175 180 183 187 191 196 199 199 200 202 202 200 198 197
83 81 78 74 69 66 68 70 69 64 61 61 61 57 51 47 43 40 36 32 27 22 16 11 8 1 350 342 346 5 21 20 13 5 4 6 5 1 3 10 14 9 1 351 340 334 326 308 305 318 332 357 42 60 73 81 88 96 109 121 126 127 130 137 146 154 160 165 170 174 177 181 187 192 195 198 201 201 197 194 196 200 200 197 195
77 76 76 75 73 70 70 73 75 74 71 67 64 60 56 54 53 50 46 43 40 37 32 26 20 15 8 0 358 16 61 54 44 31 25 28 23 11 7 9 11 9 6 358 344 334 328 310 292 269 197 169 147 118 110 108 109 113 124 133 139 146 151 153 154 158 163 169 175 179 182 185 191 196 199 200 200 196 191 189 191 197 200 199 198
67 68 70 72 73 73 72 72 71 72 71 68 65 63 61 60 59 58 55 52 49 47 43 38 32 28 21 10 4 14 75 92 75 54 44 49 50 35 22 20 18 9 3 3 348 324 317 309 285 227 174 148 131 127 126 123 118 118 127 135 140 146 151 154 158 163 169 174 178 183 188 191 191 192 193 193 191 188 187 187 189 194 197 199 201